• In Uzbekistan
  • List of Countries
  • For 7 days
  • Water Temperature
  • Satellite Maps
  • Weather Map
  • Weather Widgets
  • user-avatar
    Login

    Hourly Weather Vanadzor

    Today, 16 January, Wednesday

    Time Temperature Precipitation Wind Pressure Humidity
    00:00 -4°C° 0 mm 3 mps 630 mmHg 81%
    01:00 -5°C° 0 mm 3 mps 629 mmHg 81%
    02:00 -5°C° 0 mm 3 mps 629 mmHg 81%
    03:00 -4°C° 0 mm 4 mps 629 mmHg 81%
    04:00 -5°C° 0 mm 4 mps 629 mmHg 82%
    05:00 -5°C° 0 mm 4 mps 629 mmHg 82%
    06:00 -5°C° 0 mm 4 mps 629 mmHg 82%
    07:00 -4°C° 0 mm 4 mps 629 mmHg 81%
    08:00 -4°C° 0 mm 4 mps 629 mmHg 80%
    09:00 -3°C° 0 mm 4 mps 629 mmHg 79%
    10:00 -2°C° 0 mm 4 mps 629 mmHg 76%
    11:00 0°C° 0 mm 3 mps 629 mmHg 73%
    12:00 +1°C° 0 mm 3 mps 629 mmHg 69%
    13:00 +1°C° 0 mm 3 mps 628 mmHg 70%
    14:00 +2°C° 0 mm 2 mps 628 mmHg 70%
    15:00 +2°C° 0 mm 2 mps 627 mmHg 71%
    16:00 -1°C° 0 mm 2 mps 627 mmHg 72%
    17:00 -3°C° 0 mm 2 mps 626 mmHg 74%
    18:00 -4°C° 0 mm 2 mps 626 mmHg 75%
    19:00 -5°C° 0 mm 2 mps 626 mmHg 74%
    20:00 -5°C° 0 mm 2 mps 626 mmHg 72%
    21:00 -5°C° 0 mm 2 mps 625 mmHg 71%
    22:00 -5°C° 0 mm 2 mps 625 mmHg 71%
    23:00 -4°C° 0 mm 2 mps 625 mmHg 72%

    Tomorrow, 17 January, Thursday

    Time Temperature Precipitation Wind Pressure Humidity
    00:00 -4°C° 0 mm 2 mps 625 mmHg 72%
    01:00 -4°C° 0 mm 2 mps 625 mmHg 72%
    02:00 -4°C° 0 mm 2 mps 624 mmHg 73%
    03:00 -2°C° 0 mm 1 mps 624 mmHg 73%
    04:00 -2°C° 0.1 mm 1 mps 624 mmHg 75%
    05:00 -2°C° 0.1 mm 1 mps 624 mmHg 77%
    06:00 -3°C° 0.1 mm 0 mps 624 mmHg 80%
    07:00 -2°C° 0.3 mm 1 mps 625 mmHg 84%
    08:00 -2°C° 0.3 mm 1 mps 625 mmHg 89%
    09:00 -2°C° 0.3 mm 1 mps 625 mmHg 94%
    10:00 -2°C° 0.6 mm 1 mps 625 mmHg 93%
    11:00 -3°C° 0.6 mm 2 mps 626 mmHg 92%
    12:00 -3°C° 0.6 mm 2 mps 626 mmHg 92%
    13:00 -3°C° 0.4 mm 2 mps 626 mmHg 90%
    14:00 -3°C° 0.4 mm 2 mps 626 mmHg 89%
    15:00 -3°C° 0.4 mm 2 mps 626 mmHg 88%
    16:00 -4°C° 0.2 mm 2 mps 627 mmHg 89%
    17:00 -5°C° 0.2 mm 2 mps 628 mmHg 89%
    18:00 -3°C° 0.2 mm 1 mps 628 mmHg 90%
    19:00 -4°C° 0.1 mm 1 mps 629 mmHg 90%
    20:00 -4°C° 0.1 mm 1 mps 629 mmHg 89%
    21:00 -6°C° 0.1 mm 1 mps 630 mmHg 89%
    22:00 -6°C° 0.1 mm 1 mps 630 mmHg 88%
    23:00 -6°C° 0.1 mm 1 mps 630 mmHg 86%

    Day after tomorrow, 18 January, Friday

    Time Temperature Precipitation Wind Pressure Humidity
    00:00 -7°C° 0.1 mm 1 mps 630 mmHg 85%
    01:00 -7°C° 0 mm 1 mps 631 mmHg 83%
    02:00 -8°C° 0 mm 1 mps 631 mmHg 81%
    03:00 -8°C° 0 mm 1 mps 631 mmHg 79%
    04:00 -8°C° 0 mm 1 mps 631 mmHg 78%
    05:00 -8°C° 0 mm 1 mps 632 mmHg 78%
    06:00 -8°C° 0 mm 1 mps 632 mmHg 77%
    07:00 -8°C° 0 mm 1 mps 632 mmHg 76%
    08:00 -7°C° 0 mm 1 mps 633 mmHg 75%
    09:00 -6°C° 0 mm 1 mps 634 mmHg 74%
    10:00 -4°C° 0 mm 1 mps 634 mmHg 72%
    11:00 -2°C° 0 mm 1 mps 634 mmHg 69%
    12:00 -1°C° 0 mm 1 mps 634 mmHg 66%
    13:00 -1°C° 0 mm 1 mps 634 mmHg 68%
    14:00 -1°C° 0 mm 1 mps 634 mmHg 69%
    15:00 -1°C° 0 mm 1 mps 633 mmHg 71%
    16:00 -3°C° 0 mm 1 mps 633 mmHg 73%
    17:00 -4°C° 0 mm 1 mps 633 mmHg 75%
    18:00 -7°C° 0 mm 1 mps 633 mmHg 77%
    19:00 -9°C° 0 mm 2 mps 633 mmHg 75%
    20:00 -9°C° 0 mm 2 mps 633 mmHg 73%
    21:00 -9°C° 0 mm 2 mps 634 mmHg 70%
    22:00 -9°C° 0 mm 2 mps 634 mmHg 69%
    23:00 -10°C° 0 mm 2 mps 634 mmHg 68%

    19 January, Saturday

    Time Temperature Precipitation Wind Pressure Humidity
    00:00 -10°C° 0 mm 2 mps 634 mmHg 67%
    01:00 -10°C° 0 mm 2 mps 634 mmHg 67%
    02:00 -10°C° 0 mm 2 mps 634 mmHg 68%
    03:00 -10°C° 0 mm 2 mps 634 mmHg 68%
    04:00 -10°C° 0 mm 2 mps 633 mmHg 68%
    05:00 -12°C° 0 mm 3 mps 633 mmHg 68%
    06:00 -12°C° 0 mm 3 mps 633 mmHg 68%
    07:00 -12°C° 0 mm 3 mps 633 mmHg 67%
    08:00 -10°C° 0 mm 3 mps 634 mmHg 65%
    09:00 -9°C° 0 mm 3 mps 634 mmHg 64%
    10:00 -7°C° 0 mm 3 mps 634 mmHg 63%
    11:00 -6°C° 0 mm 3 mps 634 mmHg 62%
    12:00 -4°C° 0 mm 3 mps 634 mmHg 61%
    13:00 -3°C° 0 mm 2 mps 634 mmHg 63%
    14:00 -3°C° 0 mm 2 mps 634 mmHg 64%
    15:00 -3°C° 0 mm 2 mps 633 mmHg 65%
    16:00 -5°C° 0 mm 2 mps 633 mmHg 62%
    17:00 -7°C° 0 mm 2 mps 633 mmHg 60%
    18:00 -9°C° 0 mm 2 mps 633 mmHg 58%
    19:00 -9°C° 0 mm 2 mps 633 mmHg 54%
    20:00 -9°C° 0 mm 2 mps 633 mmHg 50%
    21:00 -10°C° 0 mm 2 mps 633 mmHg 47%
    22:00 -10°C° 0 mm 2 mps 633 mmHg 47%
    23:00 -10°C° 0 mm 2 mps 633 mmHg 47%

    20 January, Sunday

    Time Temperature Precipitation Wind Pressure Humidity
    00:00 -10°C° 0 mm 2 mps 634 mmHg 47%
    01:00 -10°C° 0 mm 2 mps 634 mmHg 49%
    02:00 -9°C° 0 mm 2 mps 634 mmHg 50%
    03:00 -9°C° 0 mm 2 mps 634 mmHg 52%
    04:00 -9°C° 0 mm 2 mps 634 mmHg 54%
    05:00 -8°C° 0 mm 2 mps 634 mmHg 57%
    06:00 -8°C° 0 mm 2 mps 635 mmHg 59%
    07:00 -7°C° 0 mm 2 mps 635 mmHg 61%
    08:00 -6°C° 0 mm 2 mps 635 mmHg 63%
    09:00 -6°C° 0 mm 2 mps 636 mmHg 65%
    10:00 -3°C° 0 mm 1 mps 636 mmHg 63%
    11:00 -2°C° 0 mm 1 mps 636 mmHg 61%
    12:00 -1°C° 0 mm 1 mps 636 mmHg 59%
    13:00 -1°C° 0 mm 1 mps 635 mmHg 61%
    14:00 -1°C° 0 mm 1 mps 635 mmHg 62%
    15:00 -1°C° 0 mm 1 mps 635 mmHg 64%
    16:00 -2°C° 0 mm 1 mps 635 mmHg 66%
    17:00 -3°C° 0 mm 1 mps 634 mmHg 67%
    18:00 -6°C° 0 mm 1 mps 634 mmHg 69%
    19:00 -6°C° 0 mm 1 mps 634 mmHg 67%
    20:00 -7°C° 0 mm 1 mps 634 mmHg 66%
    21:00 -8°C° 0 mm 2 mps 635 mmHg 64%
    22:00 -9°C° 0 mm 2 mps 634 mmHg 62%
    23:00 -9°C° 0 mm 2 mps 634 mmHg 60%

    21 January, Monday

    Time Temperature Precipitation Wind Pressure Humidity
    00:00 -9°C° 0 mm 2 mps 634 mmHg 59%
    01:00 -9°C° 0 mm 2 mps 634 mmHg 58%
    02:00 -10°C° 0 mm 2 mps 634 mmHg 58%
    03:00 -10°C° 0 mm 2 mps 634 mmHg 58%
    04:00 -10°C° 0 mm 2 mps 634 mmHg 58%
    05:00 -10°C° 0 mm 2 mps 634 mmHg 59%
    06:00 -10°C° 0 mm 2 mps 634 mmHg 60%
    07:00 -9°C° 0 mm 2 mps 634 mmHg 62%
    08:00 -9°C° 0 mm 2 mps 634 mmHg 64%
    09:00 -8°C° 0 mm 2 mps 635 mmHg 66%
    10:00 -6°C° 0 mm 2 mps 635 mmHg 64%
    11:00 -5°C° 0 mm 2 mps 635 mmHg 63%
    12:00 -3°C° 0 mm 2 mps 634 mmHg 62%
    13:00 -3°C° 0 mm 2 mps 634 mmHg 63%
    14:00 -3°C° 0 mm 2 mps 634 mmHg 64%
    15:00 -3°C° 0 mm 2 mps 633 mmHg 64%
    16:00 -5°C° 0 mm 2 mps 633 mmHg 64%
    17:00 -7°C° 0 mm 2 mps 633 mmHg 64%
    18:00 -9°C° 0 mm 3 mps 632 mmHg 63%
    19:00 -9°C° 0 mm 3 mps 633 mmHg 61%
    20:00 -10°C° 0 mm 3 mps 633 mmHg 59%
    21:00 -10°C° 0 mm 3 mps 633 mmHg 56%
    22:00 -10°C° 0 mm 3 mps 633 mmHg 58%
    23:00 -10°C° 0 mm 3 mps 633 mmHg 59%
    Show more